User: anonymous   Login
Location: Pine Mountain Observatory
(43.7910°N, 120.9377°W)
Time: 11:49:52
(UTC-08:00)
Language:

Cosmos 1867 - Orbit

View from above orbital plane
View from above orbital plane
View from above satellite
View from above satellite

Ground track
Ground track

The orbit data is extracted from the following two-line orbital elements,

1 18187U 87060A   16336.67497697 -.00000124 +00000-0 -90573-5 0  9998
2 18187 065.0102 061.5605 0018566 258.3955 101.5045 14.31080199535507
Epoch (UTC): 01 December 2016 16:11:58
Eccentricity: 0.0018566
inclination: 65.0102°
perigee height: 775 km
apogee height: 801 km
right ascension of ascending node: 61.5605°
argument of perigee: 258.3955°
revolutions per day: 14.31080199
mean anomaly at epoch: 101.5045°
orbit number at epoch: 53550

The dashed part of the orbit path shows where the satellite is in the earth's shadow,  

DLR